Flag for Germany Weather past 2 weeks in Kassel, Hesse, Germany

54 °F


Feels Like: 50 °F
Forecast: 51 / 56 °F
Wind: 12 mph from West

Location: Kassel / Calden

Current Time: Oct 9, 2015 at 12:07:31 AM

Latest Report: Oct 8, 2015 at 9:50 PM

Visibility: 2 mi

Pressure: 30.15 "Hg

Humidity: 100%

Dew point: 54 °F

Location of KasselLocation

Historic Weather in Kassel — Graph


Kassel temperature yesterday

Maximum temperature yesterday: 55 °F (at 8:50 AM)
Minimum temperature yesterday: 54 °F (at 6:50 AM)
Average temperature yesterday: 54 °F

Past Weeks' High & Low Weather Summary

High64 °F (Oct 2, 4:20 PM)100% (Sep 23, 9:20 PM)30.66 "Hg (Sep 23, 9:20 PM)
Low30 °F (Oct 2, 6:50 AM)37% (Oct 2, 4:20 PM)29.68 "Hg (Oct 6, 7:20 AM)
Average54 °F80%30.21 "Hg
* Reported Sep 23 9:20 PM — Oct 8 9:50 PM, Kassel, Weather by CustomWeather, © 2015

Note: Actual official high and low records may vary slightly from our data, if they occured in-between our weather recording intervals... More about our weather records


Kassel weather history for previous 24 hours

Time TempWeatherWind HumidityBarometerVisibility
9:50 PM
Thu, Oct 8
54 °FFog.12 mph100%30.15 "Hg2 mi
9:20 PM54 °FPartly cloudy.7 mph100%30.15 "Hg4 mi
8:50 PM54 °FMostly cloudy.3 mph100%30.15 "Hg4 mi
7:50 PM54 °FLight rain. Partly cloudy.3 mph100%30.15 "Hg3 mi
7:20 PM54 °FRain. Cloudy.3 mph100%30.12 "Hg1 mi
6:50 PM54 °FLight rain. Overcast.2 mph100%30.12 "Hg2 mi
6:20 PM54 °FFog.3 mph100%30.12 "Hg2 mi
5:50 PM54 °FPartly sunny.2 mph100%30.12 "Hg4 mi
5:20 PM54 °FFog.3 mph100%30.12 "Hg3 mi
4:50 PM55 °FFog.5 mph100%30.12 "Hg3 mi
4:20 PM54 °FOvercast.3 mph100%30.12 "Hg4 mi
3:50 PM55 °FFog.2 mph100%30.12 "Hg3 mi
3:20 PM55 °FFog.2 mph100%30.12 "Hg3 mi
2:50 PM55 °FPartly sunny.3 mph100%30.12 "Hg6 mi
2:20 PM55 °FLight rain. Broken clouds.2 mph100%30.12 "Hg4 mi
1:50 PM55 °FLight rain. Broken clouds.1 mph100%30.09 "Hg6 mi
1:20 PM55 °FMostly cloudy.2 mph100%30.09 "HgN/A
12:50 PM55 °FMore clouds than sun.2 mph100%30.09 "HgN/A
12:20 PM55 °FMostly cloudy.2 mph100%30.09 "HgN/A
11:50 AM55 °FCloudy.2 mph100%30.09 "Hg6 mi
11:20 AM55 °FMostly cloudy.5 mph100%30.09 "Hg6 mi
10:50 AM54 °FFog.2 mph100%30.09 "Hg3 mi
10:20 AM54 °FFog.5 mph100%30.09 "Hg3 mi
9:50 AM55 °FCloudy.5 mph94%30.07 "HgN/A
9:20 AM55 °FOvercast.8 mph100%30.07 "HgN/A
8:50 AM55 °FOvercast.6 mph100%30.07 "HgN/A
8:20 AM54 °FOvercast.3 mph100%30.04 "HgN/A
7:50 AM54 °FOvercast.1 mph100%30.04 "HgN/A
7:20 AM54 °FOvercast.1 mph100%30.04 "HgN/A
6:50 AM54 °FOvercast.1 mph100%30.04 "HgN/A
Weather by CustomWeather, © 2015

See weather overviewHow to use our weather pages